Location: El Corozo
(10.5833°N, 66.9667°W)
Time: 11:35:18
(UTC+00:00)

Hubble Space Telescope - Pass Details

Date: 23 May 2024
Orbit: 510 x 514 km, 28.5° (Epoch: 21 June)

Event Time Altitude Azimuth Distance (km) Brightness Sun altitude
Rises 23:59:21 0° 244° (WSW) 2,608 4.8 -17.7°
Reaches altitude 10° 00:01:36 10° 245° (WSW) 1,721 3.9 -18.2°
Maximum altitude 00:05:34 80° 331° (NNW) 519 0.7 -19.1°
Enters shadow 00:07:12 34° 55° (NE) 849 1.5 -19.5°
